Skip Page Navigation
NASA JPL Caltech
NASA Logo - Jet Propulsion Laboratory + View the NASA Portal
+ Near-Earth Object (NEO) Program
Search JPL
JPL Home Earth Solar System Stars & Galaxies Technology
JPL Solar System Dynamics
BODIES ORBITS EPHEMERIDES TOOLS PHYSICAL DATA DISCOVERY FAQ SITE MAP
JPL Small-Body Database Browser
Search: [ help ]  
(2012 VU76)
Classification: Apollo [NEO]          SPK-ID: 3617715
Ephemeris | Orbit Diagram | Orbital Elements | Physical Parameters | Close-Approach Data ]

[ hide orbit diagram ]
Orbit Diagram
Note: Make sure you have Java enabled on your browser to see the applet. This applet is provided as a 3D orbit visualization tool. The applet was implemented using 2-body methods, and hence should not be used for determining accurate long-term trajectories (over several years or decades) or planetary encounter circumstances. For accurate long-term ephemerides, please instead use our Horizons system.
Orbit Viewer

Additional Notes: the orbits shown in the applet are color coded. The planets are white lines, and the asteroid/comet is a blue line. The bright white line indicates the portion of the orbit that is above the ecliptic plane, and the darker portion is below the ecliptic plane. Likewise for the asteroid/comet orbit, the light blue indicates the portion above the ecliptic plane, and the dark blue the portion below the ecliptic plane.

Orbit Viewer applet originally written and kindly provided by Osamu Ajiki (AstroArts), and further modified by Ron Baalke (JPL).


Orbital Elements at Epoch 2456400.5 (2013-Apr-18.0) TDB
Reference: JPL 6 (heliocentric ecliptic J2000)
 Element Value Uncertainty (1-sigma)   Units 
e .1280876870139395 0.00018048  
a 1.01847939476975 9.243e-05 AU
q .8880247248223361 0.00010343 AU
i 6.760569989841981 0.010411 deg
node 52.67101973955188 0.0021405 deg
peri 88.80056948457657 0.011254 deg
M 74.77316283943129 0.010572 deg
tp 2456322.522367019509
(2013-Jan-30.02236702)
0.021634 JED
period 375.4281189530374
1.03
0.051107
0.0001399
d
yr
n .9589052652847048 0.00013054 deg/d
Q 1.148934064717165 0.00010427 AU
  Orbit Determination Parameters
   # obs. used (total)      40  
   data-arc span      5 days  
   first obs. used      2012-11-13  
   last obs. used      2012-11-18  
   planetary ephem.      DE405  
   SB-pert. ephem.      SB405-CPV-2  
   condition code      6  
   fit RMS      .47356  
   data source      ORB  
   producer      Otto Matic  
   solution date      2012-Nov-20 00:54:28  

Additional Information
 Earth MOID = .00422719 AU 
 T_jup = 5.980 
[ show covariance matrix ]

Ephemeris | Orbit Diagram | Orbital Elements | Physical Parameters | Close-Approach Data ]

Physical Parameter Table
Parameter Symbol Value Units Sigma Reference Notes
absolute magnitude H 25.628 mag .3549 6 autocmod 2.5b

[ show close-approach data ]
Ephemeris | Orbit Diagram | Orbital Elements | Physical Parameters | Close-Approach Data ]
ABOUT SSD CREDITS/AWARDS PRIVACY/COPYRIGHT GLOSSARY LINKS
FirstGov 2013-May-22 00:50 UT
(server date/time)  
NASA Home Page
Site Manager:   Donald K. Yeomans
Webmaster  Alan B. Chamberlin